Temperature
10 10 10 10 10 10 10 10 10 9 9 9 9 9 9 9 8 8 8 8 8 8 8 8 8 8 8 8 8 8 8 8 7 7 7 7 7 7 7 7 7 7 7
10 10 10 10 10 10 9 9 9 9 9 9 9 9 9 8 8 8 8 8 8 8 8 8 8 7 7 7 7 7 7 7 7 7 6 6 6 7 7 7 7 7 7
10 9 9 9 9 9 9 9 9 9 9 8 8 8 8 7 7 8 8 7 7 7 7 7 7 7 7 7 7 7 7 7 6 6 6 6 6 6 6 6 6 6 6
9 9 9 9 9 9 9 9 9 9 8 8 8 8 8 8 8 8 7 7 7 7 7 7 7 7 7 6 6 6 6 6 6 6 6 6 6 5 5 6 6 6 6
9 9 9 9 9 9 9 8 8 8 8 8 8 8 8 7 7 7 7 7 7 7 6 6 6 6 6 6 6 6 6 6 6 5 5 5 5 5 5 5 5 5 5
9 9 9 9 8 8 8 8 8 8 8 7 7 7 7 7 7 7 7 6 6 6 6 6 6 6 6 5 5 5 5 5 5 5 5 5 5 5 4 4 4 4 5
8 8 8 8 8 8 8 8 8 8 7 7 7 7 7 7 7 7 6 6 6 6 6 6 5 5 5 5 5 5 5 5 5 4 4 4 4 4 4 4 4 4 4
8 8 8 8 8 8 8 8 7 7 7 7 7 6 6 6 6 6 6 6 6 6 5 5 5 5 5 5 4 4 4 4 4 4 4 4 4 3 3 3 3 3 3
7 8 8 8 8 8 8 7 7 7 7 6 6 6 6 6 6 6 6 5 5 5 5 5 5 4 4 4 4 4 4 4 3 3 3 3 3 3 3 3 3 2 2
7 7 7 7 7 7 7 7 7 7 6 6 6 6 5 5 5 5 5 5 5 5 5 5 4 4 4 4 3 3 3 3 3 3 3 3 3 3 2 2 2 2 2
6 7 7 7 7 7 7 6 6 6 6 6 5 5 5 5 5 5 5 5 5 4 4 4 4 4 4 3 3 3 3 3 3 3 2 2 2 2 2 2 2 1 1
6 6 6 6 6 6 6 6 6 6 6 5 5 5 5 5 4 4 4 4 4 4 4 4 4 3 3 3 3 3 3 2 2 2 2 2 2 2 2 1 1 1 1
6 6 6 6 6 6 6 6 5 5 5 5 5 4 4 4 4 4 4 4 4 4 4 3 3 3 3 3 3 2 2 2 2 2 2 2 2 1 1 1 1 1 1
6 5 6 6 5 5 5 5 5 5 5 4 4 4 4 4 4 4 4 4 4 4 3 3 3 3 3 2 2 2 2 2 2 2 1 1 1 1 1 1 1 0 0
5 5 5 5 5 5 5 5 5 4 4 4 4 4 3 3 3 3 3 3 3 3 3 3 3 2 2 2 2 2 2 1 1 1 1 1 1 0 0 0 0 0 -0
5 5 5 5 5 4 4 4 4 4 4 3 3 3 3 3 3 3 3 3 3 3 2 2 2 2 2 2 1 1 1 1 1 1 1 1 0 0 -0 -0 -0 -0 -0
5 5 5 5 4 4 4 4 4 3 3 3 3 3 2 2 2 2 2 2 2 2 2 2 2 2 2 1 1 1 1 1 1 0 0 0 0 -0 -0 -0 -1 -1 -1
5 5 4 4 4 4 3 3 3 3 3 2 2 2 2 2 2 2 2 2 2 2 2 2 1 1 1 1 0 0 0 0 0 0 0 -0 -0 -0 -1 -1 -1 -1 -1
4 4 4 4 4 3 3 3 3 2 2 2 2 2 2 1 1 1 1 1 1 1 1 1 1 1 1 0 -0 -0 -0 -0 -0 -0 -0 -1 -1 -1 -1 -1 -1 -1 -1
4 4 4 3 3 3 3 2 2 2 2 2 2 1 1 1 1 1 1 1 1 1 0 0 0 -0 -0 -1 -1 -1 -1 -1 -1 -1 -1 -1 -1 -1 -1 -1 -1 -1 -1
3 3 3 3 3 2 2 2 2 2 2 2 1 1 1 1 1 0 0 0 0 0 -0 -0 -0 -1 -1 -1 -1 -1 -2 -2 -2 -1 -1 -1 -1 -1 -1 -2 -2 -2 -2
3 2 2 2 2 2 2 2 2 1 1 1 1 1 0 0 0 -0 -0 -0 -1 -1 -1 -1 -1 -1 -1 -1 -2 -2 -2 -2 -2 -2 -2 -2 -2 -2 -2 -2 -2 -2 -2
2 2 2 2 2 1 1 1 1 1 1 0 0 0 -0 -0 -1 -1 -1 -1 -1 -1 -1 -1 -1 -1 -2 -2 -2 -2 -2 -2 -2 -2 -2 -2 -2 -2 -2 -2 -2 -2 -2
2 1 1 1 1 1 1 1 1 0 0 -0 -0 -1 -1 -1 -1 -1 -1 -1 -2 -2 -2 -2 -2 -2 -2 -2 -2 -3 -3 -3 -3 -3 -3 -3 -3 -3 -3 -3 -3 -3 -3
1 1 1 1 1 0 0 0 0 -0 -1 -1 -1 -1 -1 -1 -1 -2 -2 -2 -2 -2 -2 -2 -2 -2 -2 -2 -3 -3 -3 -3 -3 -3 -3 -3 -3 -3 -3 -3 -3 -3 -3
1 0 0 0 0 0 -0 -0 -1 -1 -1 -1 -1 -2 -2 -2 -2 -2 -2 -2 -2 -2 -3 -3 -3 -3 -3 -3 -3 -3 -3 -3 -3 -3 -3 -3 -3 -3 -3 -3 -3 -3 -4
Wind_Speed
8 6 6 6 6 6 7 7 7 6 5 4 4 4 3 3 2 3 4 4 4 4 3 2 1 2 2 2 2 1 1 0 0 1 2 3 3 2 2 1 1 1 2
6 6 6 6 7 7 7 7 8 7 7 5 4 3 3 2 3 2 3 4 4 4 4 3 2 2 1 2 1 1 1 0 0 1 1 2 3 2 2 1 1 1 1
10 9 7 7 7 7 8 7 8 8 7 6 4 3 2 2 1 1 2 2 3 3 3 4 3 3 3 3 3 2 2 2 1 0 2 1 3 3 3 2 2 1 2
8 8 8 8 8 7 7 7 7 7 7 7 6 6 5 4 3 3 2 2 3 3 4 4 3 3 2 3 3 2 2 2 2 1 1 1 2 1 2 3 2 2 3
9 9 9 9 7 6 6 6 6 6 6 7 7 7 5 4 2 2 2 2 2 3 3 4 3 3 2 3 3 2 2 2 2 2 1 1 1 1 2 4 3 3 3
8 8 7 6 5 4 5 5 6 5 5 6 6 7 7 5 4 3 3 3 2 2 3 3 3 3 2 3 3 3 3 3 3 2 2 2 2 2 2 3 4 4 4
8 7 7 7 6 6 6 6 6 5 5 6 6 7 7 7 7 6 5 4 3 2 4 3 3 3 3 4 3 3 3 3 3 3 3 3 3 2 2 2 3 4 3
7 7 7 7 7 7 7 6 6 5 6 6 6 5 6 5 4 5 4 5 4 4 4 4 4 4 4 3 3 2 3 3 3 4 4 3 3 2 2 2 2 3 3
7 6 6 6 7 7 7 7 7 6 5 6 5 5 5 5 5 4 4 4 4 3 4 4 3 3 3 4 3 3 3 3 3 3 3 3 3 3 3 2 3 3 4
5 5 5 5 5 6 5 5 6 6 5 5 5 4 5 5 5 4 4 4 4 4 4 4 4 3 3 3 4 3 3 4 4 3 3 3 3 2 2 3 3 3 4
5 4 4 4 4 4 4 4 5 4 4 5 4 4 4 4 4 4 5 5 4 5 5 5 5 4 4 4 4 4 4 4 4 4 4 4 4 3 3 3 3 3 3
4 4 4 4 4 4 4 5 5 5 5 5 5 4 4 4 4 4 4 5 5 5 5 5 4 5 5 4 5 5 5 5 5 5 4 5 4 4 3 3 4 4 4
3 3 3 4 4 4 4 4 4 5 4 4 4 4 4 4 4 4 4 4 4 4 4 4 5 5 5 5 5 5 5 6 6 5 6 6 5 5 4 4 4 4 4
4 4 4 4 4 4 4 4 4 4 4 4 4 4 4 4 4 3 3 3 4 4 4 4 4 5 5 5 5 5 5 5 6 6 6 6 6 6 6 5 5 4 4
4 5 5 4 4 4 4 4 4 4 4 4 4 4 3 3 2 2 2 2 2 3 4 3 3 3 3 4 4 5 5 5 5 5 6 6 7 9 7 6 5 5 4
6 6 6 6 5 5 5 4 4 4 4 4 4 3 3 2 2 2 2 2 2 2 2 3 3 4 4 5 6 5 4 5 5 6 5 6 7 9 10 11 9 7 6
7 7 7 7 6 6 6 5 5 4 5 4 4 3 3 3 2 2 2 2 2 2 2 3 3 4 4 6 6 6 4 4 5 5 5 5 6 7 6 8 9 9 9
7 6 6 5 5 5 5 4 4 4 5 4 4 4 4 3 3 2 3 2 2 2 2 3 3 3 4 6 6 5 4 4 5 5 5 5 5 5 5 5 5 6 6
6 6 5 5 4 5 5 4 4 4 4 5 5 4 4 4 3 3 3 2 2 2 2 3 3 3 5 6 6 4 2 3 4 4 4 5 5 8 7 5 5 5 5
4 4 4 3 3 4 5 5 5 5 6 6 5 5 4 4 4 4 3 2 2 3 2 3 3 4 4 6 6 4 2 3 3 3 4 6 7 8 8 6 5 6 5
4 4 4 4 4 4 5 5 5 6 6 5 4 4 4 4 4 3 2 2 2 2 2 3 3 4 4 5 6 5 3 3 4 4 4 5 8 9 9 7 6 7 5
3 3 4 3 3 4 5 5 6 5 4 4 4 4 4 4 3 3 3 2 2 2 2 2 3 3 4 5 6 6 6 4 4 4 4 5 7 7 7 6 6 7 5
3 3 4 3 3 3 5 6 5 4 5 4 4 4 4 3 3 4 4 3 3 3 3 3 3 3 3 4 6 7 7 6 4 4 6 6 7 6 5 5 5 4 3
2 2 3 3 3 4 5 5 4 4 5 5 4 4 4 3 3 3 4 4 4 4 4 3 4 3 3 3 3 3 4 5 4 4 5 6 5 4 3 3 3 2 3
2 2 4 4 5 4 4 4 4 5 5 5 4 4 4 4 3 3 4 4 5 5 5 4 4 4 4 5 5 3 3 3 3 2 2 1 2 2 2 2 2 2 2
3 3 3 4 4 3 4 4 4 6 6 5 5 4 3 3 3 3 2 4 4 6 7 6 5 5 7 7 7 6 6 5 3 2 2 2 2 3 3 3 2 2 3
Wind_Direction
216 199 192 186 179 181 180 180 178 175 163 159 161 166 178 177 180 185 179 179 177 173 161 166 168 162 171 181 174 165 139 307 82 39 339 323 306 286 281 266 246 258 252
209 204 191 184 182 182 183 182 183 178 174 176 179 175 166 174 186 188 182 183 182 181 180 173 180 183 175 167 170 145 159 275 98 121 24 317 319 311 302 287 252 263 300
204 202 194 189 185 186 187 188 185 179 177 170 155 133 107 95 132 194 195 192 187 187 184 183 178 182 181 196 201 183 176 200 262 212 154 181 239 300 299 285 271 278 285
204 197 192 189 190 193 188 184 179 175 173 165 164 164 170 182 198 195 199 197 190 188 188 183 184 186 189 198 208 201 200 179 214 263 254 219 189 218 288 301 296 290 276
199 195 194 193 191 183 180 181 173 171 172 171 173 173 180 188 181 173 179 192 195 193 189 186 185 188 201 208 202 200 202 201 201 210 225 257 281 225 229 277 298 301 275
194 191 189 183 183 174 170 169 170 177 177 176 178 179 181 179 173 183 191 199 206 206 200 194 193 198 203 209 208 203 202 207 205 211 213 216 220 224 223 254 284 289 288
186 183 180 180 180 177 178 174 173 179 181 178 182 186 186 184 188 192 196 197 201 213 212 202 202 208 212 209 200 198 212 207 205 212 224 229 236 229 221 236 267 278 286
185 183 184 183 183 182 180 178 179 183 183 183 187 187 186 187 194 196 196 202 207 210 204 200 205 211 211 208 199 205 216 210 214 222 222 233 244 239 231 221 241 284 287
189 186 182 182 182 182 184 185 183 186 189 187 183 183 186 191 197 198 197 205 204 201 194 197 206 214 208 205 200 212 217 211 219 226 229 236 244 241 242 236 224 232 271
186 187 185 184 184 182 182 181 183 186 189 184 184 187 191 196 196 192 201 207 205 198 195 198 202 209 212 207 206 216 217 211 224 221 223 238 244 243 239 237 242 235 243
196 194 190 185 176 170 172 181 185 183 186 189 187 183 191 191 190 199 209 209 206 200 202 204 204 206 213 214 213 221 217 218 228 228 224 235 238 239 242 242 244 244 239
194 185 179 176 176 179 181 186 188 189 192 188 183 185 188 186 192 210 217 207 205 205 204 204 207 209 214 215 217 223 224 222 227 229 228 235 233 235 238 236 242 245 241
193 186 181 183 189 192 190 189 191 194 189 177 177 183 188 191 203 216 218 207 205 209 207 203 210 214 218 219 222 223 225 227 229 228 228 234 226 237 238 235 240 244 250
189 190 195 197 197 196 194 193 199 192 182 175 178 189 197 200 209 214 213 208 203 207 210 215 219 220 224 226 227 227 228 231 233 232 231 233 229 233 233 237 238 238 244
200 198 199 203 202 200 199 194 194 189 180 178 188 200 199 195 194 200 210 210 205 213 213 215 226 231 230 230 228 230 230 233 240 242 240 240 240 239 236 238 233 227 235
215 212 207 205 205 204 203 197 197 190 175 180 193 190 183 185 192 200 201 200 210 218 214 214 222 233 242 247 244 240 236 239 241 246 249 247 246 248 247 246 243 232 232
223 216 214 212 210 207 201 199 201 185 175 181 185 185 182 190 205 210 203 212 222 229 238 236 232 243 257 259 257 252 243 243 243 245 248 254 254 253 244 248 250 248 245
223 219 214 214 211 202 197 194 183 178 183 187 193 194 188 197 206 205 214 224 225 228 241 250 245 253 263 266 267 264 252 247 251 249 243 246 254 248 232 234 244 248 248
218 213 206 204 199 196 189 175 181 182 187 196 200 200 195 198 202 210 221 223 219 239 246 251 250 255 267 264 265 267 250 253 259 257 250 245 249 251 240 233 245 256 256
216 207 195 182 188 195 175 172 187 189 202 205 205 199 194 196 203 211 219 221 220 228 241 258 258 256 261 264 264 265 246 256 267 267 258 251 253 251 242 230 233 247 256
213 198 188 194 203 187 168 181 195 207 209 198 193 193 194 199 201 203 207 207 219 232 245 257 263 260 264 270 269 268 256 246 256 262 266 262 261 258 249 241 233 242 248
206 191 191 207 205 184 174 189 212 211 188 183 188 194 195 197 193 194 206 203 201 218 244 257 275 273 271 274 275 273 268 261 247 257 263 265 267 260 253 250 246 245 245
209 197 188 200 209 197 186 200 214 187 176 180 191 195 193 196 192 195 203 206 203 212 228 237 255 272 278 275 276 275 273 268 261 257 261 267 272 272 260 255 250 244 233
216 198 180 195 220 215 206 207 198 180 179 187 195 193 191 197 198 204 205 208 212 217 225 234 249 262 272 269 268 262 269 272 273 272 267 272 282 280 266 258 257 243 227
227 205 202 210 221 213 212 209 190 176 184 191 195 197 199 198 204 213 216 219 221 220 225 231 235 240 257 261 265 267 260 259 256 261 277 290 283 277 276 264 252 243 236
221 213 213 214 218 206 212 211 194 182 184 194 196 198 200 202 206 213 244 245 241 245 247 248 250 256 262 271 268 270 270 269 253 243 255 261 262 258 259 258 256 245 237
Height
1472 1474 1476 1478 1479 1481 1483 1484 1486 1487 1489 1490 1492 1493 1494 1496 1497 1498 1499 1500 1500 1501 1501 1502 1502 1503 1503 1503 1504 1504 1504 1504 1504 1504 1504 1503 1503 1503 1503 1503 1503 1503 1503
1468 1470 1472 1473 1475 1476 1478 1480 1482 1484 1485 1487 1489 1490 1492 1493 1494 1495 1496 1496 1497 1497 1498 1498 1499 1500 1500 1500 1501 1501 1501 1501 1501 1501 1501 1500 1501 1500 1500 1500 1500 1500 1500
1463 1465 1467 1469 1471 1472 1474 1476 1478 1480 1482 1484 1486 1487 1489 1489 1490 1491 1492 1493 1494 1494 1495 1495 1496 1496 1497 1497 1498 1498 1498 1498 1499 1499 1500 1499 1497 1497 1496 1496 1496 1496 1496
1459 1460 1462 1464 1466 1468 1471 1472 1474 1476 1479 1481 1482 1483 1484 1485 1486 1487 1489 1490 1491 1491 1492 1492 1492 1493 1494 1494 1495 1495 1495 1495 1495 1496 1496 1497 1496 1495 1493 1493 1493 1493 1492
1454 1456 1458 1460 1463 1465 1467 1469 1471 1473 1475 1477 1479 1480 1481 1482 1484 1485 1485 1486 1487 1488 1488 1489 1489 1489 1490 1491 1491 1491 1492 1492 1492 1492 1493 1493 1493 1492 1492 1489 1489 1488 1488
1450 1453 1455 1458 1460 1463 1464 1466 1468 1470 1472 1474 1475 1477 1478 1479 1480 1481 1482 1483 1484 1484 1485 1485 1486 1486 1486 1487 1488 1488 1488 1488 1489 1489 1489 1489 1489 1489 1488 1487 1485 1484 1484
1447 1449 1452 1454 1457 1459 1461 1463 1465 1467 1468 1470 1472 1473 1475 1476 1477 1478 1479 1479 1480 1481 1481 1482 1482 1482 1483 1483 1484 1484 1484 1484 1485 1485 1485 1485 1485 1486 1485 1484 1483 1481 1480
1444 1446 1448 1451 1454 1456 1458 1460 1462 1464 1465 1467 1469 1470 1472 1473 1474 1475 1476 1476 1477 1477 1478 1478 1478 1479 1479 1479 1480 1480 1480 1480 1480 1481 1481 1481 1481 1482 1482 1481 1480 1478 1476
1442 1444 1447 1449 1451 1453 1455 1457 1459 1461 1462 1464 1465 1467 1468 1470 1470 1471 1472 1473 1473 1474 1474 1474 1475 1475 1475 1475 1476 1476 1476 1476 1476 1476 1477 1477 1477 1477 1477 1477 1477 1477 1473
1441 1443 1444 1446 1448 1450 1453 1455 1456 1458 1459 1461 1462 1463 1465 1466 1467 1468 1468 1469 1469 1470 1470 1470 1471 1471 1471 1472 1472 1472 1472 1472 1472 1472 1472 1472 1472 1472 1472 1472 1472 1472 1471
1439 1441 1443 1445 1447 1448 1450 1452 1454 1455 1456 1458 1459 1460 1462 1463 1463 1464 1465 1465 1466 1466 1466 1467 1467 1467 1467 1467 1467 1468 1468 1467 1468 1468 1468 1467 1468 1467 1467 1468 1468 1467 1467
1437 1439 1441 1443 1445 1446 1448 1449 1451 1452 1453 1455 1456 1457 1458 1459 1459 1460 1461 1461 1462 1462 1463 1463 1463 1463 1463 1463 1463 1463 1463 1463 1463 1463 1463 1463 1463 1463 1463 1463 1463 1462 1462
1436 1437 1439 1441 1442 1444 1445 1447 1448 1449 1450 1452 1453 1454 1454 1455 1456 1456 1457 1458 1458 1458 1459 1459 1459 1459 1459 1459 1460 1460 1460 1459 1459 1459 1459 1458 1458 1458 1458 1458 1458 1458 1458
1434 1436 1437 1439 1440 1442 1443 1444 1445 1446 1447 1448 1449 1450 1451 1451 1452 1453 1453 1454 1454 1454 1455 1455 1455 1455 1455 1456 1456 1456 1456 1455 1455 1455 1454 1454 1454 1453 1454 1454 1453 1453 1453
1433 1434 1435 1436 1437 1439 1440 1441 1442 1443 1444 1445 1446 1446 1447 1448 1448 1449 1449 1450 1450 1451 1451 1451 1451 1451 1451 1452 1452 1452 1452 1451 1451 1450 1450 1449 1449 1449 1449 1449 1449 1449 1449
1430 1431 1432 1433 1434 1435 1436 1437 1438 1439 1440 1441 1442 1443 1443 1444 1444 1445 1446 1446 1446 1447 1447 1447 1447 1447 1447 1447 1448 1448 1448 1447 1446 1445 1445 1445 1445 1444 1444 1445 1445 1445 1445
1427 1427 1428 1429 1430 1431 1432 1433 1434 1436 1436 1437 1438 1439 1439 1440 1441 1441 1442 1442 1442 1443 1443 1443 1443 1443 1443 1444 1444 1444 1443 1443 1442 1441 1440 1440 1440 1440 1440 1440 1440 1440 1440
1423 1423 1424 1425 1426 1427 1428 1430 1431 1431 1432 1433 1434 1435 1436 1436 1437 1437 1438 1438 1438 1439 1439 1439 1439 1439 1439 1440 1440 1439 1439 1438 1437 1437 1436 1436 1435 1435 1435 1435 1435 1435 1434
1419 1420 1421 1421 1422 1423 1424 1425 1427 1428 1428 1429 1430 1431 1432 1432 1433 1433 1434 1434 1434 1434 1435 1435 1435 1435 1435 1435 1435 1435 1434 1433 1432 1432 1432 1431 1431 1431 1431 1431 1430 1429 1429
1416 1416 1417 1418 1419 1419 1421 1421 1422 1423 1424 1425 1426 1427 1428 1428 1428 1429 1430 1430 1430 1430 1431 1431 1431 1431 1431 1431 1431 1431 1430 1428 1428 1427 1427 1427 1426 1426 1426 1426 1425 1424 1424
1412 1412 1413 1413 1414 1416 1417 1417 1418 1419 1420 1422 1423 1423 1424 1424 1425 1426 1426 1426 1427 1427 1427 1427 1427 1427 1427 1427 1427 1426 1426 1425 1424 1423 1422 1422 1422 1421 1421 1421 1421 1420 1420
1408 1408 1409 1409 1411 1412 1413 1413 1414 1416 1417 1418 1418 1419 1420 1420 1421 1422 1422 1423 1423 1423 1423 1423 1423 1423 1423 1423 1423 1422 1422 1421 1421 1419 1419 1418 1418 1417 1417 1416 1416 1416 1416
1404 1405 1405 1406 1407 1409 1410 1410 1411 1412 1413 1413 1414 1415 1416 1417 1417 1418 1418 1419 1419 1419 1419 1419 1419 1419 1419 1419 1419 1418 1418 1417 1417 1416 1415 1414 1414 1413 1412 1412 1412 1412 1411
1401 1402 1402 1402 1403 1405 1406 1407 1408 1408 1409 1409 1410 1411 1412 1413 1413 1414 1415 1415 1415 1415 1415 1415 1415 1415 1415 1415 1415 1414 1414 1413 1412 1412 1411 1410 1409 1409 1408 1408 1407 1407 1407
1398 1399 1399 1399 1400 1401 1402 1403 1403 1404 1405 1405 1406 1407 1408 1409 1409 1410 1411 1411 1412 1412 1412 1412 1412 1412 1411 1411 1411 1411 1410 1409 1408 1408 1407 1406 1405 1404 1404 1403 1403 1403 1403
1395 1395 1396 1396 1397 1398 1398 1399 1399 1400 1400 1401 1402 1403 1404 1405 1405 1406 1407 1408 1409 1409 1409 1409 1409 1409 1409 1408 1408 1407 1407 1406 1405 1404 1402 1402 1401 1400 1400 1399 1399 1399 1399